TimeEST,TemperatureF,Dew PointF,Humidity,Sea Level PressureIn,VisibilityMPH,Wind Direction,Wind SpeedMPH,Gust SpeedMPH,PrecipitationIn,Events,Conditions,WindDirDegrees,DateUTC
12:53 AM,53.1,50.0,89,30.10,8.0,NNE,3.5,-,N/A,,Mostly Cloudy,30,2014-01-31 05:53:00
1:09 AM,53.1,51.1,93,30.10,8.0,NE,3.5,-,N/A,,Overcast,40,2014-01-31 06:09:00
1:53 AM,53.1,51.1,93,30.06,7.0,NE,8.1,-,0.00,Rain,Light Rain,40,2014-01-31 06:53:00
2:06 AM,53.1,51.1,93,30.07,5.0,NE,5.8,-,0.01,Rain,Light Rain,40,2014-01-31 07:06:00
2:17 AM,52.0,50.0,93,30.06,6.0,NE,8.1,-,0.02,Rain,Light Rain,50,2014-01-31 07:17:00
2:27 AM,53.1,50.0,89,30.06,7.0,ENE,9.2,-,0.02,,Overcast,60,2014-01-31 07:27:00
2:53 AM,53.1,51.1,93,30.06,7.0,ENE,6.9,-,0.02,Rain,Light Rain,60,2014-01-31 07:53:00
3:27 AM,53.1,51.1,93,30.04,6.0,ENE,11.5,-,0.02,Rain,Light Rain,70,2014-01-31 08:27:00
3:53 AM,53.1,52.0,96,30.04,6.0,East,9.2,-,0.02,,Overcast,80,2014-01-31 08:53:00
4:53 AM,54.0,53.1,97,30.05,5.0,NNE,6.9,-,0.02,Rain,Light Rain,20,2014-01-31 09:53:00
5:14 AM,54.0,53.1,97,30.06,6.0,NNE,5.8,-,0.01,Rain,Light Rain,20,2014-01-31 10:14:00
5:53 AM,54.0,53.1,97,30.07,6.0,NNE,3.5,-,0.02,,Overcast,30,2014-01-31 10:53:00
6:15 AM,54.0,53.1,97,30.06,5.0,NE,6.9,-,0.02,Rain,Rain,40,2014-01-31 11:15:00
6:53 AM,55.0,53.1,93,30.06,7.0,NE,9.2,-,0.02,Rain,Light Rain,40,2014-01-31 11:53:00
7:05 AM,55.0,53.1,93,30.07,7.0,ENE,6.9,-,0.00,Rain,Light Rain,60,2014-01-31 12:05:00
7:53 AM,55.9,54.0,93,30.07,4.0,NE,9.2,-,0.04,Rain,Rain,50,2014-01-31 12:53:00
8:00 AM,55.9,54.0,93,30.07,4.0,NE,10.4,-,0.01,Rain,Light Rain,40,2014-01-31 13:00:00
8:13 AM,55.9,54.0,93,30.08,5.0,NNE,6.9,-,0.02,Rain,Light Rain,30,2014-01-31 13:13:00
8:14 AM,55.9,54.0,93,30.08,5.0,NNE,6.9,-,0.02,Rain,Light Rain,30,2014-01-31 13:14:00
8:33 AM,55.9,54.0,93,30.08,5.0,ENE,9.2,-,0.03,Rain,Light Rain,70,2014-01-31 13:33:00
8:53 AM,55.9,54.0,93,30.08,4.0,ENE,9.2,-,0.06,Rain,Light Rain,60,2014-01-31 13:53:00
9:00 AM,55.9,54.0,93,30.09,4.0,ENE,11.5,-,0.01,Rain,Light Rain,60,2014-01-31 14:00:00
9:53 AM,57.0,55.0,93,30.08,4.0,ENE,12.7,-,0.10,Rain,Light Rain,60,2014-01-31 14:53:00
10:00 AM,57.0,55.0,93,30.08,5.0,ENE,10.4,-,0.01,Rain,Light Rain,60,2014-01-31 15:00:00
10:53 AM,60.1,57.9,93,30.09,7.0,East,8.1,-,0.02,Rain,Light Rain,80,2014-01-31 15:53:00
11:09 AM,60.1,57.9,93,30.09,4.0,East,8.1,-,0.03,Rain,Light Rain,80,2014-01-31 16:09:00
11:53 AM,62.1,60.1,93,30.07,10.0,East,12.7,-,0.07,,Overcast,80,2014-01-31 16:53:00
12:04 PM,62.1,60.1,93,30.06,10.0,East,9.2,-,N/A,,Overcast,90,2014-01-31 17:04:00
12:53 PM,64.9,63.0,93,30.05,10.0,East,10.4,-,0.00,Rain,Light Rain,80,2014-01-31 17:53:00
1:53 PM,66.0,64.0,93,30.02,10.0,ENE,10.4,-,0.00,,Overcast,60,2014-01-31 18:53:00
2:53 PM,66.9,64.0,90,30.02,10.0,NE,6.9,-,N/A,,Overcast,40,2014-01-31 19:53:00
3:53 PM,66.9,64.0,90,30.01,10.0,ENE,9.2,-,0.00,,Overcast,70,2014-01-31 20:53:00
4:53 PM,68.0,64.0,87,30.01,10.0,ENE,9.2,-,0.00,Rain,Light Rain,60,2014-01-31 21:53:00
5:00 PM,68.0,64.0,87,30.02,10.0,NE,5.8,-,0.00,,Mostly Cloudy,40,2014-01-31 22:00:00
5:06 PM,66.9,63.0,87,30.02,10.0,NNE,8.1,-,0.00,,Overcast,30,2014-01-31 22:06:00
5:23 PM,64.0,61.0,90,30.03,8.0,NNE,8.1,-,0.00,,Overcast,30,2014-01-31 22:23:00
5:53 PM,62.1,60.1,93,30.04,2.5,NNE,5.8,-,0.02,Rain,Light Rain,30,2014-01-31 22:53:00
5:58 PM,62.1,60.1,93,30.04,3.0,NNE,9.2,-,0.00,Rain,Light Rain,30,2014-01-31 22:58:00
6:11 PM,61.0,60.1,97,30.05,4.0,NNE,5.8,-,0.00,,Overcast,30,2014-01-31 23:11:00
6:53 PM,61.0,60.1,97,30.05,4.0,NE,8.1,-,0.00,,Overcast,50,2014-01-31 23:53:00
7:53 PM,62.1,60.1,93,30.06,5.0,ENE,6.9,-,N/A,,Overcast,60,2014-02-01 00:53:00
8:53 PM,62.1,60.1,93,30.07,5.0,ENE,8.1,-,N/A,,Overcast,70,2014-02-01 01:53:00
9:35 PM,63.0,61.0,93,30.08,5.0,ENE,5.8,-,0.00,,Overcast,60,2014-02-01 02:35:00
9:53 PM,63.0,61.0,93,30.08,5.0,ENE,4.6,-,0.00,Rain,Light Rain,60,2014-02-01 02:53:00
10:01 PM,63.0,61.0,93,30.08,5.0,ENE,5.8,-,0.00,Rain,Light Rain,60,2014-02-01 03:01:00
10:15 PM,63.0,61.0,93,30.09,5.0,ENE,5.8,-,0.01,Rain,Light Rain,70,2014-02-01 03:15:00
10:53 PM,63.0,61.0,93,30.08,4.0,ENE,5.8,-,0.01,Rain,Light Rain,70,2014-02-01 03:53:00
11:03 PM,63.0,61.0,93,30.08,4.0,East,8.1,-,0.00,Rain,Light Rain,80,2014-02-01 04:03:00
11:13 PM,63.0,61.0,93,30.07,4.0,East,8.1,-,0.00,Rain,Light Rain,80,2014-02-01 04:13:00
11:20 PM,63.0,61.0,93,30.07,5.0,East,6.9,-,0.00,,Overcast,80,2014-02-01 04:20:00
11:53 PM,63.0,62.1,97,30.06,5.0,East,5.8,-,0.00,,Overcast,80,2014-02-01 04:53:00